RH
79 62 58 60 55 42 69 56 43 70 48 42 62 45 38 36 36 45 38 31 25 26 27 25 34 26 24 32 28 20 27 34 64 38 55 48 47 42 41 61 45 75 68 63
67 54 50 50 58 49 61 60 62 70 57 46 39 40 36 42 42 42 37 34 30 28 27 25 28 33 40 37 30 28 34 26 48 37 47 56 58 50 48 57 66 78 64 62
77 55 48 44 50 54 66 53 52 50 60 57 34 38 32 32 42 38 37 33 32 29 29 30 37 41 43 40 36 47 29 32 26 32 26 58 56 63 52 43 71 63 67 55
95 65 55 47 43 50 59 64 44 56 46 39 39 35 38 37 41 40 39 36 35 32 34 33 32 43 54 50 53 47 41 35 39 37 32 51 46 46 63 58 40 51 38 59
100 98 79 59 52 48 52 67 59 54 54 55 42 47 43 38 34 43 42 35 34 35 30 28 34 43 49 46 60 49 58 43 45 46 44 55 53 52 59 52 43 48 40 44
96 100 100 93 71 61 70 82 84 64 48 57 44 41 34 39 34 40 34 40 46 40 38 32 30 36 41 42 55 54 53 59 62 64 57 59 66 53 45 54 60 51 54 42
97 95 96 96 88 80 95 85 89 63 54 60 51 40 40 41 42 32 41 38 37 38 48 47 46 49 50 52 51 50 65 55 61 74 58 71 38 42 46 50 52 55 50 56
94 94 94 92 90 84 79 99 93 81 73 56 50 50 48 44 45 45 43 46 43 49 44 50 49 53 45 69 72 65 53 58 62 79 84 60 42 52 57 54 56 62 62 75
90 89 88 88 86 84 56 100 100 94 86 76 55 53 50 55 57 52 52 55 54 54 62 56 61 60 46 49 79 77 64 60 62 88 87 80 48 49 48 48 62 76 79 85
87 86 86 85 83 83 58 97 86 100 97 84 70 73 64 61 63 64 67 64 62 57 75 72 79 72 48 56 69 87 89 82 75 72 85 75 54 63 56 64 65 90 89 92
85 84 84 85 81 78 59 54 56 91 98 89 77 71 77 78 79 78 70 71 76 82 80 78 80 87 68 66 63 82 78 88 94 78 88 84 95 70 59 84 94 94 91 82
92 85 83 82 82 82 79 54 32 60 98 91 86 80 79 71 67 77 80 75 76 73 75 84 78 85 91 78 82 67 66 58 72 68 73 94 94 92 93 90 92 98 100 100
95 96 89 83 84 84 86 82 70 85 93 80 90 75 79 80 87 85 98 84 71 73 77 82 86 95 86 95 93 68 59 55 67 80 97 95 100 100 100 100 100 99 93 75
83 84 97 98 99 98 93 89 79 97 96 96 76 62 68 53 73 72 79 96 94 94 96 100 100 100 98 99 92 85 87 88 100 100 100 99 98 100 98 98 74 71 70 70
93 84 86 88 84 87 81 64 96 98 98 87 88 71 61 75 81 83 83 95 97 98 100 100 99 100 100 100 100 98 98 98 98 97 100 94 96 90 68 70 74 72 68 68
92 92 88 88 87 85 74 79 100 99 88 97 94 73 75 76 78 87 88 88 95 100 100 100 100 99 99 98 97 97 97 94 95 95 97 95 92 76 72 69 70 69 72 71
86 85 84 84 88 85 84 64 75 93 89 94 92 84 65 83 91 95 95 90 97 100 100 100 100 100 97 98 96 97 97 96 97 97 86 92 80 79 84 82 76 74 69 65
85 86 88 82 85 84 88 86 94 96 89 85 98 84 74 82 96 98 100 100 99 100 100 100 100 98 96 96 97 98 98 83 82 89 83 86 88 86 82 70 68 64 65 66
86 84 53 78 74 86 94 85 94 90 98 97 98 88 82 86 94 87 90 89 94 88 97 97 96 93 95 96 95 94 94 91 92 85 83 79 73 69 66 66 65 71 73 71
66 54 58 95 81 75 85 94 94 96 98 99 98 94 96 92 89 94 91 94 97 97 94 94 94 95 97 97 97 87 90 87 79 70 68 71 69 72 72 71 71 73 75 74
72 94 96 88 69 73 84 96 96 94 98 95 98 96 97 96 98 98 97 97 95 96 93 94 95 95 96 97 97 90 69 60 60 60 62 65 69 74 76 75 73 76 77 79
95 96 89 70 75 88 84 100 88 95 96 96 97 94 97 96 84 95 95 95 94 95 93 94 95 96 96 88 84 77 65 68 69 70 74 75 76 76 81 83 84 84 83 85
83 66 76 80 86 83 91 99 95 96 95 98 97 90 99 87 85 94 90 90 99 87 93 95 96 90 81 78 74 70 70 72 75 78 78 78 78 80 84 87 87 88 92 91
91 86 76 92 96 96 95 96 96 95 97 99 99 99 93 97 95 100 95 98 93 95 97 96 97 90 83 80 77 82 84 82 85 86 85 88 90 90 90 90 90 93 98 95
100 88 91 96 94 96 98 97 96 95 97 94 94 92 89 98 96 97 88 85 98 95 95 96 94 84 85 88 85 90 90 91 94 93 96 96 95 96 95 92 93 91 92 96
91 92 94 93 96 95 94 96 97 98 98 92 88 96 96 100 100 98 100 95 98 96 96 93 95 90 91 92 90 89 91 93 95 95 95 94 96 96 97 92 86 86 89 93
90 96 93 95 96 96 97 98 97 91 93 100 98 99 98 95 99 96 96 98 95 97 92 96 90 97 94 93 92 93 93 94 95 96 95 97 95 93 95 97 90 90 90 87
Wind_Speed
26 27 28 31 33 20 3 1 1 1 4 3 1 4 5 5 4 2 2 1 3 5 5 3 5 7 5 2 4 4 1 5 3 1 0 1 1 3 4 4 4 1 2 6
24 27 30 31 33 26 5 1 1 1 1 2 3 2 2 5 4 5 4 2 3 1 6 3 2 2 0 4 5 6 5 1 3 3 2 2 4 4 4 4 3 6 5 6
26 27 30 32 31 29 6 1 1 2 3 1 4 4 4 4 4 3 4 4 3 1 1 2 6 5 3 2 2 4 3 3 5 6 4 5 4 5 5 5 3 4 7 4
25 28 30 30 29 28 5 3 2 1 2 3 2 2 5 4 5 3 5 2 6 7 5 1 3 1 3 4 3 3 3 3 3 4 4 4 5 6 10 10 10 8 13 10
24 25 26 27 27 22 4 2 3 3 2 1 2 0 6 8 3 7 5 4 6 6 5 7 8 7 4 5 1 4 0 2 4 4 5 8 6 12 11 18 12 10 13 16
21 22 24 26 26 18 6 2 0 1 2 1 3 4 5 5 4 5 2 6 5 3 7 5 1 2 3 6 9 8 5 5 3 5 3 3 5 15 14 5 5 7 9 9
18 20 22 23 23 21 6 3 2 2 4 2 4 2 4 4 4 2 2 4 4 3 6 5 4 4 2 4 3 3 6 6 4 3 2 4 5 2 4 11 6 10 2 2
18 19 20 22 22 22 13 4 2 1 4 3 5 5 4 1 1 3 3 4 2 5 4 3 3 3 2 2 3 4 3 4 2 3 4 6 5 4 5 6 2 2 7 5
15 16 18 20 22 23 19 2 6 1 1 5 3 2 3 4 3 2 4 2 2 4 3 3 6 5 5 4 3 5 3 2 3 3 4 6 4 3 2 4 3 2 6 5
15 15 15 16 19 21 20 3 11 3 2 3 1 3 2 2 0 1 1 3 2 1 3 4 4 6 4 6 8 6 4 2 10 9 6 6 2 1 1 4 3 3 5 5
14 15 14 13 14 17 19 8 12 7 3 4 2 2 1 3 1 2 1 2 1 2 3 5 5 5 8 3 5 8 9 9 5 4 4 8 3 1 4 3 3 5 4 5
15 14 14 13 12 11 14 5 14 12 5 4 13 15 13 7 7 3 3 2 3 3 2 1 1 2 2 4 4 0 3 4 5 7 4 2 3 6 5 3 6 3 5 4
16 16 14 13 12 11 10 11 13 5 2 6 2 4 3 3 8 9 3 2 2 1 1 2 2 4 3 4 5 3 2 2 3 4 3 6 5 6 4 5 8 7 7 6
16 15 15 14 12 12 11 12 13 5 4 3 3 4 3 15 6 8 10 6 3 1 1 3 3 3 4 3 1 2 1 2 4 3 5 8 8 6 7 10 9 8 5 3
15 15 15 14 13 13 15 12 2 3 3 2 4 11 3 3 7 7 12 11 4 2 3 3 3 2 3 2 3 2 2 1 2 1 4 6 6 7 8 8 6 5 4 2
17 17 16 15 14 11 11 1 5 8 18 3 3 2 3 5 9 3 4 8 4 2 2 0 1 3 0 1 2 5 4 7 5 4 10 13 10 5 5 4 4 3 2 1
17 18 16 17 16 12 4 3 3 12 4 2 3 3 2 5 3 2 1 3 2 1 1 1 1 0 1 3 3 4 9 12 10 7 7 8 2 2 2 2 2 3 3 4
16 19 19 18 14 9 7 9 5 3 2 3 2 3 3 6 3 2 2 1 1 2 1 1 1 3 3 5 7 7 7 10 12 9 7 4 4 4 4 4 4 4 4 5
18 18 13 3 3 2 4 8 8 3 3 1 1 2 2 5 3 2 2 2 2 1 2 2 3 4 5 5 10 11 12 7 4 3 5 4 5 5 4 4 4 4 5 5
15 6 3 2 2 13 6 2 1 2 1 1 1 3 1 3 2 3 3 3 2 2 3 2 4 3 4 6 5 5 4 4 5 5 8 7 7 6 5 4 5 6 7 13
5 6 2 7 9 3 4 2 2 0 1 1 2 1 2 3 2 1 2 0 2 2 3 3 3 2 2 2 4 4 5 6 6 5 3 4 4 5 6 8 11 12 14 13
4 4 5 4 5 3 5 2 3 3 3 3 2 3 2 2 2 2 3 2 2 3 4 3 3 1 3 4 4 3 7 8 7 9 7 10 9 11 11 11 13 14 16 18
1 3 4 3 3 6 4 3 4 2 3 3 3 2 2 3 4 3 3 5 2 2 3 3 2 3 4 5 5 7 12 14 13 13 15 16 14 15 13 14 16 19 17 18
3 3 4 3 4 2 1 2 2 2 2 3 1 1 3 2 4 0 5 1 2 4 3 3 1 2 5 5 5 5 7 9 9 10 12 13 12 13 16 15 17 18 17 18
2 3 2 2 2 1 2 2 1 2 2 2 2 2 2 3 4 3 3 6 4 3 2 2 2 5 6 6 5 6 6 8 8 12 11 13 13 13 14 16 18 18 18 17
3 4 3 1 1 3 3 3 2 2 2 1 3 2 4 4 2 5 2 4 1 2 2 2 3 5 5 5 6 9 12 13 14 14 14 14 13 13 16 20 18 17 19 20
4 2 2 2 1 2 2 2 3 7 1 2 2 5 1 1 4 4 1 2 2 2 2 2 3 3 5 9 12 13 14 14 14 15 15 16 17 18 17 12 17 18 19 21
Wind_Direction
2 4 4 4 6 3 313 118 306 48 165 61 51 170 195 166 181 198 272 231 177 178 182 160 168 190 217 185 169 158 249 124 150 170 348 85 155 173 155 123 230 137 142 276
6 6 5 4 3 2 320 242 232 44 82 192 228 213 198 193 160 192 172 220 249 216 176 163 186 181 14 169 167 170 186 43 65 9 10 7 215 192 141 109 99 207 135 258
0 2 360 359 360 359 332 50 309 336 56 285 150 175 197 194 200 191 183 167 126 96 293 298 180 164 166 162 146 109 118 137 175 187 191 132 188 199 181 140 142 171 225 249
6 357 353 351 355 356 343 26 277 243 265 284 230 164 172 165 191 221 169 210 219 167 163 165 239 55 19 8 23 58 95 210 172 265 221 186 211 201 178 197 209 189 256 193
5 3 359 351 350 357 62 11 5 355 300 318 139 206 220 201 173 153 231 211 177 193 186 185 192 153 186 199 18 160 92 183 167 257 206 199 241 241 195 216 233 252 274 274
3 9 9 6 4 10 25 17 283 107 310 15 124 219 221 227 172 194 171 178 127 189 231 209 330 180 132 156 154 182 155 134 101 257 345 39 304 243 219 183 194 199 222 242
10 9 9 9 11 14 340 331 328 82 273 201 214 272 209 215 216 221 155 148 152 171 110 111 89 78 104 151 201 125 141 147 174 242 209 226 234 172 177 199 214 210 208 103
3 5 6 7 7 7 360 342 337 189 256 230 278 227 234 263 208 216 207 215 182 140 77 64 360 331 340 129 29 205 179 146 197 207 214 304 294 176 157 176 226 208 143 116
359 4 6 6 4 2 360 353 340 211 172 240 297 276 208 215 211 285 195 66 122 76 104 122 201 214 215 222 161 24 129 24 180 146 222 234 220 154 144 138 269 84 119 113
353 356 1 2 3 2 356 331 8 267 226 269 286 224 214 147 112 202 333 164 143 58 145 176 182 231 197 203 188 173 129 159 217 217 251 283 258 1 331 136 204 114 106 101
343 343 348 356 0 2 353 327 6 11 308 291 227 274 348 356 92 179 207 67 336 66 182 184 201 199 213 182 179 175 167 170 191 179 224 276 14 111 191 132 62 116 106 120
331 331 335 341 348 358 352 335 339 337 235 297 303 281 270 250 229 181 213 235 182 216 178 232 193 192 151 174 227 293 225 204 171 189 212 103 24 102 82 75 124 108 114 99
331 326 322 326 331 339 344 330 333 330 269 273 295 275 282 254 252 238 238 222 275 204 155 174 165 234 145 177 221 195 197 168 152 163 165 148 105 70 72 82 102 103 114 115
315 323 332 329 323 325 330 324 311 276 258 271 288 354 303 321 279 256 231 276 252 164 203 216 210 212 192 196 135 182 171 134 173 181 114 99 70 83 102 96 98 99 89 104
327 320 317 312 315 321 321 318 257 253 265 275 291 308 295 318 331 292 234 229 244 223 186 201 215 191 179 189 161 135 354 25 199 115 75 88 96 91 106 115 111 105 103 96
328 330 324 313 309 314 333 333 156 118 21 350 306 277 259 322 338 287 202 209 218 235 187 333 244 21 79 186 82 18 39 53 44 89 69 87 101 110 48 77 69 66 53 15
317 324 320 312 312 303 249 249 280 304 302 261 294 289 315 330 314 272 262 204 154 184 53 247 69 199 104 30 59 32 50 64 54 52 106 86 98 123 35 73 24 14 356 334
315 316 314 311 304 278 267 268 328 298 178 248 270 281 318 11 343 340 344 16 40 89 157 161 42 46 54 62 47 55 55 50 39 30 41 81 92 49 39 39 25 7 330 308
317 313 318 337 13 351 306 319 319 295 285 231 185 245 299 349 8 337 333 349 52 313 47 49 41 38 47 14 60 56 48 42 347 27 82 72 62 38 20 3 357 326 300 290
323 329 357 349 342 318 317 60 337 38 3 337 291 334 286 355 343 11 358 8 27 35 59 322 68 66 69 60 77 77 31 26 9 30 15 0 357 356 344 326 306 292 291 302
351 12 334 309 329 358 31 39 68 310 79 14 312 332 322 14 0 7 34 274 22 77 22 28 72 62 48 1 353 2 29 31 32 35 26 360 326 325 331 329 324 321 317 310
319 310 301 322 25 27 78 344 339 17 40 9 358 327 330 351 322 28 10 53 29 70 327 70 80 70 13 8 10 11 23 13 17 15 2 353 344 336 322 310 302 306 307 310
323 41 43 31 323 36 71 349 334 19 10 359 347 337 342 349 33 53 44 56 54 304 49 67 61 4 14 1 353 357 6 7 0 352 349 341 331 329 323 314 313 316 310 309
65 66 11 68 353 22 54 348 29 18 326 349 350 5 32 340 41 29 73 22 25 54 57 76 335 304 335 353 358 4 343 342 335 326 320 312 309 307 312 310 314 313 306 307
73 58 30 32 354 352 300 303 345 344 316 358 26 38 53 360 61 34 64 32 47 46 62 53 309 337 352 342 342 329 319 316 299 308 302 306 310 307 306 317 316 316 314 309
70 46 42 284 34 1 15 2 345 356 348 83 47 71 52 22 95 48 43 88 41 50 24 290 317 327 319 316 319 316 321 321 319 322 324 319 317 317 314 320 324 320 318 311
40 11 6 8 64 35 28 330 326 323 21 45 65 54 203 2 47 38 18 64 37 308 313 296 287 281 300 312 321 326 326 325 323 323 322 317 319 323 321 305 316 317 313 314